Regional Weather Roundup
Issued by NWS

Home | Current Version | Previous Version | Graphics & Text | Print | Product List | Glossary On
Versions: 1 2 3 4 5 6 7 8 9 10 11 12 13 14 15 16 17 18 19 20 21 22 23 24 25 26 27 28 29 30 31 32 33 34 35 36 37 38 39 40 41 42 43 44 45 46 47 48 49 50
117
ASUS43 KFSD 260102
RWRSD

WEATHER ROUNDUP FOR SOUTH DAKOTA
NATIONAL WEATHER SERVICE SIOUX FALLS SD
800 PM CDT THU MAY 25 2017

NOTE: "FAIR" INDICATES FEW OR NO CLOUDS BELOW 12,000 FEET WITH NO
SIGNIFICANT WEATHER AND/OR OBSTRUCTIONS TO VISIBILITY.


SDZ001>005-009-010-012>017-260200-
NORTHWEST AND NORTH CENTRAL SOUTH DAKOTA

CITY           SKY/WX    TMP DP  RH WIND       PRES   REMARKS
BUFFALO          N/A     56  42  59 W25       29.62R
FAITH            N/A     63  40  42 NW23G33   29.63R
MOBRIDGE       PTSUNNY   72  40  31 NW21G32   29.50R
$$

SDZ012>016-024>037-041>051-057-063-072>074-260200-
SOUTHWEST AND SOUTH CENTRAL SOUTH DAKOTA

CITY           SKY/WX    TMP DP  RH WIND       PRES   REMARKS
RAPID CTY ARPT CLOUDY    60  39  45 N26G38    29.66R
PIERRE         SUNNY     73  33  23 W7        29.54R
CUSTER         MOSUNNY   54  26  34 W10       29.74R
ELLSWORTH AFB  CLOUDY    61  41  47 NW26G37   29.65R
PHILIP         CLOUDY    68  38  33 NW5       29.59R
PINE RIDGE     MOSUNNY   67  38  34 W8        29.64R
WINNER         FAIR      72  50  45 CALM      29.59R
$$

SDZ004>011-016>023-039-040-260200-
NORTHEAST SOUTH DAKOTA

CITY           SKY/WX    TMP DP  RH WIND       PRES   REMARKS
ABERDEEN       CLEAR     72  48  42 NW9       29.51R
WATERTOWN      PTCLDY    62  55  77 S10       29.55S
BROOKINGS      MOCLDY    63  54  72 S8        29.57R
SISSETON         N/A     65  55  70 S13       29.53R
$$

SDZ017-020-022-023-036>040-048>070-260200-
SOUTHEAST SOUTH DAKOTA

CITY           SKY/WX    TMP DP  RH WIND       PRES   REMARKS
SIOUX FALLS    PTCLDY    69  53  56 S9        29.57R
HURON          PTCLDY    68  55  63 S8        29.53R
MITCHELL       PTCLDY    70  56  61 W6        29.56R
YANKTON        CLEAR     74  52  46 SW3       29.56R
$$

ABBREVIATIONS USED IN REMARKS
   TC - TEMPERATURE IN CELSIUS
  WCI - WIND CHILL INDEX
   HX - HEAT INDEX
  VSB - VISIBILITY





USA.gov is the U.S. government's official web portal to all federal, state and local government web resources and services.